TimeCDT,TemperatureF,Dew PointF,Humidity,Sea Level PressureIn,VisibilityMPH,Wind Direction,Wind SpeedMPH,Gust SpeedMPH,PrecipitationIn,Events,Conditions,WindDirDegrees,DateUTC
12:53 AM,75.9,71.1,85,29.87,10.0,Calm,Calm,-,N/A,,Clear,0,2012-06-23 05:53:00
1:53 AM,75.0,71.1,87,29.85,10.0,Calm,Calm,-,N/A,,Clear,0,2012-06-23 06:53:00
2:53 AM,72.0,70.0,93,29.85,10.0,North,3.5,-,N/A,,Clear,360,2012-06-23 07:53:00
3:53 AM,73.0,71.1,93,29.84,9.0,Calm,Calm,-,N/A,,Clear,0,2012-06-23 08:53:00
4:53 AM,73.0,71.1,93,29.84,9.0,NW,3.5,-,N/A,,Clear,310,2012-06-23 09:53:00
5:53 AM,73.9,70.0,87,29.85,10.0,Calm,Calm,-,N/A,,Clear,0,2012-06-23 10:53:00
6:53 AM,73.9,70.0,87,29.86,8.0,Calm,Calm,-,N/A,,Clear,0,2012-06-23 11:53:00
7:53 AM,80.1,69.1,69,29.87,10.0,Calm,Calm,-,N/A,,Clear,0,2012-06-23 12:53:00
8:53 AM,86.0,69.1,57,29.88,10.0,NNE,4.6,-,N/A,,Clear,30,2012-06-23 13:53:00
9:53 AM,88.0,68.0,51,29.89,10.0,NNE,5.8,-,N/A,,Clear,30,2012-06-23 14:53:00
10:53 AM,90.0,66.9,46,29.89,10.0,NE,4.6,-,N/A,,Partly Cloudy,50,2012-06-23 15:53:00
11:53 AM,91.0,64.9,42,29.89,10.0,East,8.1,16.1,N/A,,Partly Cloudy,100,2012-06-23 16:53:00
12:53 PM,91.9,64.9,41,29.87,10.0,East,5.8,-,N/A,,Clear,90,2012-06-23 17:53:00
1:53 PM,95.0,64.0,36,29.85,10.0,SSE,6.9,-,N/A,,Partly Cloudy,160,2012-06-23 18:53:00
2:53 PM,96.1,63.0,33,29.84,10.0,East,8.1,-,N/A,,Clear,80,2012-06-23 19:53:00
3:53 PM,96.1,63.0,33,29.83,10.0,East,9.2,-,N/A,,Scattered Clouds,90,2012-06-23 20:53:00
4:53 PM,95.0,63.0,34,29.83,10.0,ESE,6.9,-,N/A,,Clear,110,2012-06-23 21:53:00
5:53 PM,93.9,64.0,37,29.83,10.0,East,6.9,-,N/A,,Partly Cloudy,100,2012-06-23 22:53:00
6:53 PM,93.0,64.0,38,29.83,10.0,East,5.8,-,N/A,,Clear,90,2012-06-23 23:53:00
7:53 PM,91.0,64.9,42,29.85,10.0,Calm,Calm,-,N/A,,Clear,0,2012-06-24 00:53:00
8:53 PM,86.0,66.9,53,29.86,10.0,Calm,Calm,-,N/A,,Clear,0,2012-06-24 01:53:00
9:53 PM,81.0,73.0,77,29.87,10.0,SSW,4.6,-,N/A,,Clear,200,2012-06-24 02:53:00
10:53 PM,79.0,73.9,84,29.89,10.0,South,4.6,-,N/A,,Mostly Cloudy,180,2012-06-24 03:53:00
11:27 PM,78.8,73.4,83,29.91,10.0,Calm,Calm,-,N/A,,Scattered Clouds,0,2012-06-24 04:27:00
11:53 PM,78.1,73.9,87,29.89,10.0,Calm,Calm,-,N/A,,Clear,0,2012-06-24 04:53:00